| time (UTC) | temp C | wind direction | speed KPH | gust KPH | rain 1hr cm | rain 24hr cm | rain mn cm | humidity % | barometer mb |
| 20260507093514 | 6 | 218 | 8.0 | 17.7 | 0.00 | 0.00 | 0.00 | 81 | 1001.1 |
| 20260507093013 | 6 | 273 | 8.0 | 14.5 | 0.00 | 0.00 | 0.00 | 81 | 1001.2 |
| 20260507092509 | 6 | 257 | 12.9 | 20.9 | 0.00 | 0.00 | 0.00 | 80 | 1001.2 |
| 20260507092006 | 6 | 266 | 9.7 | 17.7 | 0.00 | 0.00 | 0.00 | 80 | 1001.4 |
| 20260507091502 | 6 | 235 | 4.8 | 11.3 | 0.00 | 0.00 | 0.00 | 80 | 1001.4 |
| 20260507090958 | 6 | 234 | 8.0 | 17.7 | 0.00 | 0.00 | 0.00 | 80 | 1001.3 |
| 20260507090454 | 6 | 212 | 8.0 | 16.1 | 0.00 | 0.00 | 0.00 | 81 | 1001.3 |
| 20260507085950 | 6 | 236 | 8.0 | 11.3 | 0.00 | 0.00 | 0.00 | 81 | 1001.7 |
| 20260507085448 | 6 | 256 | 8.0 | 12.9 | 0.00 | 0.00 | 0.00 | 81 | 1001.6 |
| 20260507084944 | 6 | 198 | 11.3 | 16.1 | 0.00 | 0.00 | 0.00 | 81 | 1001.4 |
| 20260507084442 | 6 | 235 | 14.5 | 22.5 | 0.00 | 0.00 | 0.00 | 80 | 1001.5 |
| 20260507083938 | 6 | 242 | 14.5 | 24.1 | 0.00 | 0.00 | 0.00 | 80 | 1001.4 |
| 20260507083435 | 6 | 237 | 9.7 | 24.1 | 0.00 | 0.00 | 0.00 | 80 | 1001.6 |
| 20260507082931 | 6 | 271 | 8.0 | 17.7 | 0.00 | 0.00 | 0.00 | 80 | 1001.6 |
| 20260507082427 | 6 | 279 | 9.7 | 24.1 | 0.00 | 0.00 | 0.00 | 79 | 1001.4 |
| 20260507081924 | 6 | 252 | 14.5 | 16.1 | 0.00 | 0.00 | 0.00 | 80 | 1001.5 |
| 20260507081420 | 6 | 236 | 16.1 | 17.7 | 0.00 | 0.00 | 0.00 | 80 | 1001.6 |
| 20260507080917 | 6 | 232 | 17.7 | 20.9 | 0.00 | 0.00 | 0.00 | 80 | 1001.8 |
| 20260507080414 | 6 | 236 | 12.9 | 17.7 | 0.00 | 0.00 | 0.00 | 80 | 1001.6 |
| 20260507075909 | 6 | 198 | 6.4 | 20.9 | 0.00 | 0.00 | 0.00 | 81 | 1001.9 |
| 20260507075405 | 6 | 252 | 8.0 | 14.5 | 0.00 | 0.00 | 0.00 | 81 | 1001.9 |
| 20260507074902 | 6 | 272 | 8.0 | 20.9 | 0.00 | 0.00 | 0.00 | 81 | 1001.8 |
| 20260507074359 | 6 | 202 | 11.3 | 20.9 | 0.00 | 0.00 | 0.00 | 81 | 1002.2 |
| 20260507073856 | 6 | 245 | 9.7 | 20.9 | 0.00 | 0.00 | 0.00 | 81 | 1002.0 |
| 20260507073353 | 6 | 236 | 6.4 | 17.7 | 0.00 | 0.00 | 0.00 | 81 | 1002.4 |
| 20260507072850 | 6 | 216 | 9.7 | 22.5 | 0.00 | 0.00 | 0.00 | 80 | 1002.3 |
| 20260507072347 | 6 | 221 | 12.9 | 20.9 | 0.00 | 0.00 | 0.00 | 80 | 1002.5 |
| 20260507071845 | 6 | 230 | 17.7 | 24.1 | 0.00 | 0.00 | 0.00 | 81 | 1002.6 |
| 20260507071342 | 6 | 235 | 8.0 | 20.9 | 0.00 | 0.00 | 0.00 | 81 | 1002.9 |
| 20260507070838 | 6 | 222 | 14.5 | 20.9 | 0.00 | 0.00 | 0.00 | 81 | 1002.8 |
| 20260507070335 | 6 | 254 | 12.9 | 22.5 | 0.00 | 0.00 | 0.00 | 81 | 1003.0 |
| 20260507065832 | 6 | 249 | 9.7 | 25.7 | 0.00 | 0.00 | 0.00 | 81 | 1002.9 |
| 20260507065329 | 6 | 234 | 9.7 | 20.9 | 0.00 | 0.00 | 0.00 | 81 | 1003.0 |
| 20260507064826 | 6 | 234 | 9.7 | 16.1 | 0.00 | 0.00 | 0.00 | 80 | 1003.1 |
| 20260507064324 | 6 | 233 | 16.1 | 22.5 | 0.00 | 0.00 | 0.00 | 80 | 1003.1 |
| 20260507063822 | 6 | 235 | 14.5 | 22.5 | 0.00 | 0.00 | 0.00 | 79 | 1003.1 |
| 20260507063318 | 6 | 231 | 9.7 | 24.1 | 0.00 | 0.00 | 0.00 | 80 | 1003.2 |
| 20260507062815 | 7 | 230 | 14.5 | 20.9 | 0.00 | 0.00 | 0.00 | 79 | 1003.3 |
| 20260507062312 | 7 | 220 | 12.9 | 22.5 | 0.00 | 0.00 | 0.00 | 79 | 1003.3 |
| 20260507061810 | 7 | 232 | 17.7 | 22.5 | 0.00 | 0.00 | 0.00 | 79 | 1003.3 |
| 20260507061308 | 7 | 245 | 14.5 | 20.9 | 0.00 | 0.00 | 0.00 | 79 | 1003.2 |
| 20260507060806 | 7 | 240 | 16.1 | 20.9 | 0.00 | 0.00 | 0.00 | 79 | 1003.2 |
| 20260507060303 | 7 | 255 | 11.3 | 22.5 | 0.00 | 0.00 | 0.00 | 79 | 1003.3 |
| 20260507055759 | 7 | 184 | 16.1 | 22.5 | 0.00 | 0.00 | 0.00 | 78 | 1003.4 |
| 20260507055254 | 7 | 239 | 6.4 | 12.9 | 0.00 | 0.00 | 0.00 | 78 | 1003.5 |
| 20260507054751 | 7 | 249 | 6.4 | 12.9 | 0.00 | 0.00 | 0.00 | 78 | 1003.4 |
| 20260507054247 | 7 | 233 | 9.7 | 16.1 | 0.00 | 0.00 | 0.00 | 78 | 1003.6 |
| 20260507053745 | 7 | 216 | 6.4 | 12.9 | 0.00 | 0.00 | 0.00 | 77 | 1003.8 |
| 20260507053242 | 7 | 219 | 9.7 | 17.7 | 0.00 | 0.00 | 0.00 | 77 | 1003.6 |
| 20260507052741 | 7 | 263 | 9.7 | 20.9 | 0.00 | 0.00 | 0.00 | 76 | 1003.6 |
| 20260507052237 | 7 | 212 | 8.0 | 22.5 | 0.00 | 0.00 | 0.00 | 76 | 1003.9 |
| 20260507051736 | 7 | 252 | 9.7 | 22.5 | 0.00 | 0.00 | 0.00 | 76 | 1003.9 |
| 20260507051232 | 7 | 249 | 11.3 | 24.1 | 0.00 | 0.00 | 0.00 | 75 | 1003.8 |
| 20260507050728 | 7 | 241 | 9.7 | 16.1 | 0.00 | 0.00 | 0.00 | 75 | 1003.9 |
| 20260507050226 | 7 | 235 | 9.7 | 20.9 | 0.00 | 0.00 | 0.00 | 74 | 1004.0 |
| 20260507045722 | 7 | 256 | 4.8 | 14.5 | 0.00 | 0.00 | 0.00 | 73 | 1003.8 |
| 20260507045218 | 7 | 228 | 11.3 | 16.1 | 0.00 | 0.00 | 0.00 | 72 | 1003.9 |
| 20260507044716 | 7 | 238 | 11.3 | 17.7 | 0.00 | 0.00 | 0.00 | 71 | 1004.0 |
| 20260507044212 | 7 | 207 | 12.9 | 17.7 | 0.00 | 0.00 | 0.00 | 70 | 1004.0 |
| 20260507043709 | 7 | 242 | 17.7 | 22.5 | 0.00 | 0.00 | 0.00 | 69 | 1004.0 |
| 20260507043205 | 7 | 253 | 8.0 | 17.7 | 0.00 | 0.00 | 0.00 | 68 | 1004.0 |
| 20260507042702 | 8 | 242 | 16.1 | 17.7 | 0.00 | 0.00 | 0.00 | 67 | 1004.2 |
| 20260507042156 | 8 | 226 | 14.5 | 16.1 | 0.00 | 0.00 | 0.00 | 67 | 1004.2 |
| 20260507041654 | 8 | 257 | 9.7 | 17.7 | 0.00 | 0.00 | 0.00 | 65 | 1004.3 |
| 20260507041150 | 8 | 210 | 8.0 | 16.1 | 0.00 | 0.00 | 0.00 | 65 | 1004.4 |
| 20260507040648 | 8 | 221 | 11.3 | 16.1 | 0.00 | 0.00 | 0.00 | 64 | 1004.3 |
| 20260507040144 | 8 | 235 | 9.7 | 14.5 | 0.00 | 0.00 | 0.00 | 63 | 1004.2 |
| 20260507035640 | 8 | 232 | 9.7 | 12.9 | 0.00 | 0.00 | 0.00 | 63 | 1004.3 |
| 20260507035136 | 8 | 198 | 9.7 | 12.9 | 0.00 | 0.00 | 0.00 | 62 | 1004.5 |
| 20260507034633 | 8 | 228 | 6.4 | 17.7 | 0.00 | 0.00 | 0.00 | 62 | 1004.5 |
| 20260507034131 | 8 | 238 | 12.9 | 17.7 | 0.00 | 0.00 | 0.00 | 61 | 1004.4 |
| 20260507033629 | 8 | 228 | 8.0 | 11.3 | 0.00 | 0.00 | 0.00 | 61 | 1004.7 |
| 20260507033126 | 9 | 232 | 8.0 | 16.1 | 0.00 | 0.00 | 0.00 | 60 | 1004.6 |
| 20260507032623 | 9 | 252 | 8.0 | 16.1 | 0.00 | 0.00 | 0.00 | 60 | 1004.5 |
| 20260507032119 | 9 | 197 | 6.4 | 9.7 | 0.00 | 0.00 | 0.00 | 60 | 1004.7 |
| 20260507031616 | 9 | 207 | 9.7 | 20.9 | 0.00 | 0.00 | 0.00 | 59 | 1004.8 |
| 20260507031112 | 10 | 226 | 6.4 | 14.5 | 0.00 | 0.00 | 0.00 | 59 | 1004.7 |
| 20260507030608 | 10 | 235 | 9.7 | 17.7 | 0.00 | 0.00 | 0.00 | 58 | 1004.7 |
| 20260507030107 | 10 | 223 | 12.9 | 17.7 | 0.00 | 0.00 | 0.00 | 59 | 1004.7 |
| 20260507025603 | 10 | 209 | 9.7 | 12.9 | 0.00 | 0.00 | 0.00 | 59 | 1004.5 |
| 20260507025100 | 10 | 219 | 6.4 | 16.1 | 0.00 | 0.00 | 0.00 | 59 | 1004.5 |
| 20260507024559 | 10 | 237 | 9.7 | 14.5 | 0.00 | 0.00 | 0.00 | 59 | 1004.7 |
| 20260507024055 | 10 | 236 | 9.7 | 14.5 | 0.00 | 0.00 | 0.00 | 58 | 1004.5 |
| 20260507023550 | 10 | 224 | 9.7 | 14.5 | 0.00 | 0.00 | 0.00 | 58 | 1004.5 |
| 20260507023048 | 10 | 200 | 4.8 | 22.5 | 0.00 | 0.00 | 0.00 | 58 | 1004.5 |
| 20260507022545 | 10 | 206 | 8.0 | 17.7 | 0.00 | 0.00 | 0.00 | 59 | 1004.4 |
| 20260507022040 | 10 | 245 | 9.7 | 17.7 | 0.00 | 0.00 | 0.00 | 60 | 1004.4 |
| 20260507021537 | 10 | 257 | 11.3 | 14.5 | 0.00 | 0.00 | 0.00 | 60 | 1004.4 |
| 20260507021033 | 10 | 213 | 11.3 | 16.1 | 0.00 | 0.00 | 0.00 | 60 | 1004.5 |
| 20260507020531 | 10 | 230 | 9.7 | 14.5 | 0.00 | 0.00 | 0.00 | 60 | 1004.5 |
| 20260507020027 | 10 | 217 | 12.9 | 16.1 | 0.00 | 0.00 | 0.00 | 60 | 1004.4 |
| 20260507015526 | 11 | 199 | 4.8 | 11.3 | 0.00 | 0.00 | 0.00 | 59 | 1004.5 |
| 20260507015023 | 11 | 193 | 6.4 | 14.5 | 0.00 | 0.00 | 0.00 | 58 | 1004.4 |
| 20260507014519 | 11 | 224 | 9.7 | 14.5 | 0.00 | 0.00 | 0.00 | 57 | 1004.5 |
| 20260507014015 | 11 | 259 | 9.7 | 14.5 | 0.00 | 0.00 | 0.00 | 56 | 1004.6 |
| 20260507013512 | 11 | 231 | 6.4 | 14.5 | 0.00 | 0.00 | 0.00 | 55 | 1004.4 |
| 20260507013009 | 11 | 228 | 8.0 | 12.9 | 0.00 | 0.00 | 0.00 | 54 | 1004.5 |
| 20260507012506 | 11 | 234 | 9.7 | 14.5 | 0.00 | 0.00 | 0.00 | 53 | 1004.3 |
| 20260507012002 | 11 | 278 | 6.4 | 16.1 | 0.00 | 0.00 | 0.00 | 52 | 1004.5 |
| 20260507011500 | 11 | 217 | 4.8 | 9.7 | 0.00 | 0.00 | 0.00 | 52 | 1004.3 |
| 20260507010955 | 12 | 231 | 8.0 | 12.9 | 0.00 | 0.00 | 0.00 | 52 | 1004.3 |
| 20260507010450 | 12 | 217 | 9.7 | 20.9 | 0.00 | 0.00 | 0.00 | 51 | 1004.3 |
| 20260507005947 | 12 | 205 | 0.0 | 17.7 | 0.00 | 0.00 | 0.00 | 51 | 1004.3 |
| 20260507005445 | 12 | 274 | 3.2 | 14.5 | 0.00 | 0.00 | 0.00 | 49 | 1004.3 |
| 20260507004941 | 12 | 222 | 9.7 | 12.9 | 0.00 | 0.00 | 0.00 | 47 | 1004.1 |
| 20260507004437 | 12 | 229 | 6.4 | 9.7 | 0.00 | 0.00 | 0.00 | 46 | 1004.2 |
| 20260507003935 | 12 | 272 | 3.2 | 11.3 | 0.00 | 0.00 | 0.00 | 46 | 1004.1 |
| 20260507003430 | 13 | 259 | 16.1 | 20.9 | 0.00 | 0.00 | 0.00 | 46 | 1004.4 |
| 20260507002925 | 13 | 236 | 6.4 | 12.9 | 0.00 | 0.00 | 0.00 | 45 | 1004.2 |
| 20260507002422 | 13 | 260 | 9.7 | 14.5 | 0.00 | 0.00 | 0.00 | 45 | 1004.0 |
| 20260507001919 | 13 | 210 | 11.3 | 17.7 | 0.00 | 0.00 | 0.00 | 44 | 1004.1 |
| 20260507001416 | 13 | 264 | 9.7 | 17.7 | 0.00 | 0.00 | 0.00 | 44 | 1004.0 |
| 20260507000914 | 13 | 296 | 8.0 | 12.9 | 0.00 | 0.00 | 0.00 | 44 | 1004.2 |
| 20260507000408 | 13 | 247 | 14.5 | 17.7 | 0.00 | 0.00 | 0.00 | 44 | 1004.2 |
| 20260506235904 | 13 | 263 | 16.1 | 20.9 | 0.00 | 0.00 | 0.00 | 42 | 1004.2 |
| 20260506235402 | 13 | 291 | 4.8 | 12.9 | 0.00 | 0.00 | 0.00 | 42 | 1004.2 |
| 20260506234857 | 13 | 241 | 9.7 | 14.5 | 0.00 | 0.00 | 0.00 | 43 | 1004.3 |
| 20260506234355 | 13 | 210 | 12.9 | 14.5 | 0.00 | 0.00 | 0.00 | 43 | 1004.2 |
| 20260506233853 | 13 | 258 | 9.7 | 14.5 | 0.00 | 0.00 | 0.00 | 41 | 1004.3 |
| 20260506233349 | 14 | 228 | 9.7 | 12.9 | 0.00 | 0.00 | 0.00 | 42 | 1004.4 |
| 20260506232846 | 14 | 239 | 9.7 | 16.1 | 0.00 | 0.00 | 0.00 | 40 | 1004.4 |
| 20260506232342 | 13 | 316 | 8.0 | 14.5 | 0.00 | 0.00 | 0.00 | 42 | 1004.4 |
| 20260506231838 | 13 | 296 | 3.2 | 3.2 | 0.00 | 0.00 | 0.00 | 43 | 1004.5 |
| 20260506231336 | 12 | 278 | 1.6 | 6.4 | 0.00 | 0.00 | 0.00 | 45 | 1004.4 |
| 20260506230833 | 12 | 246 | 3.2 | 4.8 | 0.00 | 0.00 | 0.00 | 44 | 1004.5 |
| 20260506230330 | 12 | 198 | 0.0 | 3.2 | 0.00 | 0.00 | 0.00 | 46 | 1004.5 |
| 20260506225826 | 13 | 254 | 0.0 | 6.4 | 0.00 | 0.00 | 0.00 | 43 | 1004.4 |
| 20260506225323 | 13 | 260 | 4.8 | 4.8 | 0.00 | 0.00 | 0.00 | 43 | 1004.7 |
| 20260506224820 | 13 | 278 | 4.8 | 11.3 | 0.00 | 0.00 | 0.00 | 43 | 1004.7 |
| 20260506224317 | 12 | 237 | 0.0 | 11.3 | 0.00 | 0.00 | 0.00 | 42 | 1004.6 |
| 20260506223814 | 13 | 258 | 9.7 | 11.3 | 0.00 | 0.00 | 0.00 | 40 | 1004.7 |
| 20260506223309 | 13 | 204 | 11.3 | 14.5 | 0.00 | 0.00 | 0.00 | 40 | 1004.8 |
| 20260506222806 | 13 | 277 | 3.2 | 11.3 | 0.00 | 0.00 | 0.00 | 41 | 1004.7 |
| 20260506222305 | 13 | 218 | 9.7 | 14.5 | 0.00 | 0.00 | 0.00 | 40 | 1004.7 |
| 20260506221754 | 13 | 228 | 6.4 | 9.7 | 0.00 | 0.00 | 0.00 | 40 | 1004.7 |
| 20260506221251 | 13 | 239 | 4.8 | 11.3 | 0.00 | 0.00 | 0.00 | 40 | 1004.8 |
| 20260506220749 | 13 | 230 | 9.7 | 12.9 | 0.00 | 0.00 | 0.00 | 39 | 1004.8 |
| 20260506220243 | 13 | 217 | 11.3 | 16.1 | 0.00 | 0.00 | 0.00 | 40 | 1004.9 |
| 20260506215741 | 13 | 243 | 6.4 | 12.9 | 0.00 | 0.00 | 0.00 | 38 | 1004.9 |
| 20260506215236 | 13 | 233 | 6.4 | 11.3 | 0.00 | 0.00 | 0.00 | 38 | 1005.1 |
| 20260506214733 | 13 | 244 | 0.0 | 0.0 | 0.00 | 0.00 | 0.00 | 36 | 1004.8 |
| 20260506214230 | 13 | 229 | 0.0 | 9.7 | 0.00 | 0.00 | 0.00 | 38 | 1004.9 |
| 20260506213728 | 13 | 275 | 1.6 | 4.8 | 0.00 | 0.00 | 0.00 | 37 | 1005.1 |
| 20260506213225 | 12 | 244 | 3.2 | 9.7 | 0.00 | 0.00 | 0.00 | 37 | 1004.9 |
| 20260506212722 | 13 | 305 | 6.4 | 14.5 | 0.00 | 0.00 | 0.00 | 36 | 1005.1 |
| 20260506212218 | 13 | 321 | 9.7 | 12.9 | 0.00 | 0.00 | 0.00 | 37 | 1005.2 |
| 20260506211713 | 13 | 286 | 3.2 | 11.3 | 0.00 | 0.00 | 0.00 | 36 | 1005.1 |
| 20260506211210 | 14 | 333 | 8.0 | 11.3 | 0.00 | 0.00 | 0.00 | 36 | 1005.4 |
| 20260506210707 | 13 | 303 | 3.2 | 4.8 | 0.00 | 0.00 | 0.00 | 37 | 1005.2 |
| 20260506210204 | 13 | 210 | 6.4 | 9.7 | 0.00 | 0.00 | 0.00 | 36 | 1005.6 |
| 20260506205702 | 13 | 300 | 1.6 | 3.2 | 0.00 | 0.00 | 0.00 | 35 | 1005.6 |
| 20260506205202 | 13 | 285 | 4.8 | 12.9 | 0.00 | 0.00 | 0.00 | 37 | 1005.8 |
| 20260506204659 | 13 | 284 | 6.4 | 12.9 | 0.00 | 0.00 | 0.00 | 34 | 1005.8 |
| 20260506204156 | 13 | 345 | 4.8 | 6.4 | 0.00 | 0.00 | 0.00 | 35 | 1005.8 |
| 20260506203654 | 13 | 266 | 4.8 | 11.3 | 0.00 | 0.00 | 0.00 | 38 | 1005.8 |
| 20260506203151 | 12 | 269 | 6.4 | 11.3 | 0.00 | 0.00 | 0.00 | 36 | 1006.0 |
| 20260506202649 | 12 | 329 | 8.0 | 14.5 | 0.00 | 0.00 | 0.00 | 37 | 1006.1 |
| 20260506202145 | 13 | 15 | 6.4 | 11.3 | 0.00 | 0.00 | 0.00 | 36 | 1006.0 |
| 20260506201642 | 13 | 232 | 3.2 | 4.8 | 0.00 | 0.00 | 0.00 | 36 | 1005.9 |
| 20260506201138 | 13 | 176 | 6.4 | 12.9 | 0.00 | 0.00 | 0.00 | 38 | 1006.0 |
| 20260506200635 | 12 | 294 | 1.6 | 6.4 | 0.00 | 0.00 | 0.00 | 38 | 1006.1 |
| 20260506200132 | 12 | 337 | 1.6 | 9.7 | 0.00 | 0.00 | 0.00 | 37 | 1006.1 |
| 20260506195628 | 12 | 307 | 4.8 | 11.3 | 0.00 | 0.00 | 0.00 | 37 | 1006.1 |
| 20260506195125 | 13 | 287 | 3.2 | 11.3 | 0.00 | 0.00 | 0.00 | 37 | 1006.2 |
| 20260506194622 | 12 | 275 | 8.0 | 12.9 | 0.00 | 0.00 | 0.00 | 36 | 1006.2 |
| 20260506194118 | 13 | 320 | 8.0 | 16.1 | 0.00 | 0.00 | 0.00 | 36 | 1006.3 |
| 20260506193617 | 12 | 243 | 8.0 | 11.3 | 0.00 | 0.00 | 0.00 | 38 | 1006.3 |
| 20260506193114 | 12 | 220 | 4.8 | 6.4 | 0.00 | 0.00 | 0.00 | 37 | 1006.3 |
| 20260506192610 | 12 | 209 | 6.4 | 9.7 | 0.00 | 0.00 | 0.00 | 38 | 1006.4 |
| 20260506192106 | 13 | 305 | 6.4 | 16.1 | 0.00 | 0.00 | 0.00 | 38 | 1006.4 |
| 20260506191603 | 12 | 249 | 4.8 | 9.7 | 0.00 | 0.00 | 0.00 | 39 | 1006.5 |
| 20260506191059 | 12 | 279 | 0.0 | 4.8 | 0.00 | 0.00 | 0.00 | 38 | 1006.5 |
| 20260506190556 | 12 | 299 | 6.4 | 9.7 | 0.00 | 0.00 | 0.00 | 36 | 1006.5 |
| 20260506190053 | 12 | 243 | 6.4 | 16.1 | 0.00 | 0.00 | 0.00 | 39 | 1006.6 |
| 20260506185550 | 12 | 193 | 6.4 | 11.3 | 0.00 | 0.00 | 0.00 | 40 | 1006.7 |
| 20260506185047 | 12 | 182 | 3.2 | 4.8 | 0.00 | 0.00 | 0.00 | 43 | 1006.8 |
| 20260506184544 | 13 | 124 | 4.8 | 6.4 | 0.00 | 0.00 | 0.00 | 39 | 1007.0 |
| 20260506184042 | 11 | 301 | 0.0 | 12.9 | 0.00 | 0.00 | 0.00 | 37 | 1007.1 |
| 20260506183537 | 11 | 209 | 4.8 | 4.8 | 0.00 | 0.00 | 0.00 | 40 | 1007.0 |
| 20260506183034 | 12 | 240 | 6.4 | 11.3 | 0.00 | 0.00 | 0.00 | 38 | 1007.0 |
| 20260506182532 | 12 | 205 | 4.8 | 12.9 | 0.00 | 0.00 | 0.00 | 40 | 1007.2 |
| 20260506182029 | 12 | 280 | 6.4 | 9.7 | 0.00 | 0.00 | 0.00 | 36 | 1007.1 |
| 20260506181527 | 12 | 31 | 1.6 | 6.4 | 0.00 | 0.00 | 0.00 | 37 | 1007.3 |
| 20260506181023 | 12 | 324 | 6.4 | 12.9 | 0.00 | 0.00 | 0.00 | 38 | 1007.3 |
| 20260506180520 | 12 | 318 | 1.6 | 11.3 | 0.00 | 0.00 | 0.00 | 37 | 1007.3 |
| 20260506180016 | 12 | 224 | 8.0 | 16.1 | 0.00 | 0.00 | 0.00 | 37 | 1007.3 |
| 20260506175513 | 11 | 177 | 1.6 | 9.7 | 0.00 | 0.00 | 0.00 | 41 | 1007.4 |
| 20260506175009 | 11 | 209 | 8.0 | 11.3 | 0.00 | 0.00 | 0.00 | 36 | 1007.4 |
| 20260506174508 | 11 | 311 | 0.0 | 1.6 | 0.00 | 0.00 | 0.00 | 37 | 1007.5 |
| 20260506174003 | 12 | 357 | 0.0 | 0.0 | 0.00 | 0.00 | 0.00 | 38 | 1007.5 |
| 20260506173502 | 11 | 243 | 0.0 | 1.6 | 0.00 | 0.00 | 0.00 | 39 | 1007.6 |
| 20260506172958 | 11 | 198 | 3.2 | 4.8 | 0.00 | 0.00 | 0.00 | 39 | 1007.4 |
| 20260506172456 | 11 | 303 | 0.0 | 6.4 | 0.00 | 0.00 | 0.00 | 37 | 1007.6 |
| 20260506171951 | 11 | 330 | 8.0 | 9.7 | 0.00 | 0.00 | 0.00 | 37 | 1007.6 |
| 20260506171449 | 11 | 313 | 6.4 | 6.4 | 0.00 | 0.00 | 0.00 | 38 | 1007.5 |
| 20260506170947 | 12 | 344 | 8.0 | 11.3 | 0.00 | 0.00 | 0.00 | 37 | 1007.5 |
| 20260506170443 | 13 | 99 | 0.0 | 1.6 | 0.00 | 0.00 | 0.00 | 40 | 1007.5 |
| 20260506165942 | 12 | 207 | 0.0 | 1.6 | 0.00 | 0.00 | 0.00 | 37 | 1007.5 |
| 20260506165440 | 10 | 354 | 0.0 | 4.8 | 0.00 | 0.00 | 0.00 | 38 | 1007.5 |
| 20260506164930 | 11 | 302 | 3.2 | 3.2 | 0.00 | 0.00 | 0.00 | 38 | 1007.6 |
| 20260506164427 | 11 | 0 | 0.0 | 0.0 | 0.00 | 0.00 | 0.00 | 39 | 1007.4 |
| 20260506163925 | 10 | 308 | 0.0 | 9.7 | 0.00 | 0.00 | 0.00 | 39 | 1007.4 |
| 20260506163419 | 10 | 25 | 0.0 | 1.6 | 0.00 | 0.00 | 0.00 | 40 | 1007.5 |
| 20260506162914 | 11 | 31 | 0.0 | 3.2 | 0.00 | 0.00 | 0.00 | 39 | 1007.5 |
| 20260506162413 | 11 | 210 | 0.0 | 0.0 | 0.00 | 0.00 | 0.00 | 41 | 1007.5 |
| 20260506161910 | 11 | 283 | 3.2 | 9.7 | 0.00 | 0.00 | 0.00 | 37 | 1007.6 |
| 20260506161408 | 11 | 177 | 0.0 | 9.7 | 0.00 | 0.00 | 0.00 | 43 | 1007.5 |
| 20260506160905 | 10 | 215 | 0.0 | 3.2 | 0.00 | 0.00 | 0.00 | 40 | 1007.7 |
| 20260506160402 | 10 | 288 | 1.6 | 4.8 | 0.00 | 0.00 | 0.00 | 38 | 1007.5 |
| 20260506155900 | 10 | 245 | 8.0 | 11.3 | 0.00 | 0.00 | 0.00 | 39 | 1007.5 |
| 20260506155356 | 11 | 326 | 3.2 | 9.7 | 0.00 | 0.00 | 0.00 | 42 | 1007.5 |
| 20260506153513 | 10 | 318 | 4.8 | 12.9 | 0.00 | 0.00 | 0.00 | 41 | 1007.8 |
| 20260506153011 | 10 | 279 | 4.8 | 4.8 | 0.00 | 0.00 | 0.00 | 41 | 1007.8 |
| 20260506152508 | 10 | 320 | 3.2 | 6.4 | 0.00 | 0.00 | 0.00 | 42 | 1007.6 |
| 20260506152006 | 10 | 336 | 6.4 | 9.7 | 0.00 | 0.00 | 0.00 | 39 | 1007.7 |
| 20260506151503 | 10 | 43 | 0.0 | 0.0 | 0.00 | 0.00 | 0.00 | 45 | 1007.7 |
| 20260506151000 | 10 | 324 | 0.0 | 0.0 | 0.00 | 0.00 | 0.00 | 42 | 1007.7 |
| 20260506150456 | 10 | 303 | 0.0 | 0.0 | 0.00 | 0.00 | 0.00 | 39 | 1007.6 |
| 20260506145953 | 10 | 274 | 0.0 | 1.6 | 0.00 | 0.00 | 0.00 | 41 | 1007.7 |
| 20260506145449 | 10 | 328 | 3.2 | 4.8 | 0.00 | 0.00 | 0.00 | 41 | 1007.5 |
| 20260506144947 | 10 | 195 | 0.0 | 0.0 | 0.00 | 0.00 | 0.00 | 45 | 1007.6 |
| 20260506144444 | 10 | 268 | 0.0 | 9.7 | 0.00 | 0.00 | 0.00 | 43 | 1007.4 |
| 20260506143942 | 10 | 287 | 0.0 | 0.0 | 0.00 | 0.00 | 0.00 | 44 | 1007.6 |
| 20260506143439 | 9 | 0 | 0.0 | 0.0 | 0.00 | 0.00 | 0.00 | 49 | 1007.6 |
| 20260506142937 | 9 | 260 | 0.0 | 0.0 | 0.00 | 0.00 | 0.00 | 45 | 1007.7 |
| 20260506142435 | 8 | 323 | 0.0 | 3.2 | 0.00 | 0.00 | 0.00 | 46 | 1007.7 |
| 20260506141932 | 8 | 320 | 1.6 | 4.8 | 0.00 | 0.00 | 0.00 | 47 | 1007.7 |
| 20260506141430 | 8 | 6 | 0.0 | 1.6 | 0.00 | 0.00 | 0.00 | 48 | 1007.5 |
| 20260506140929 | 8 | 359 | 0.0 | 0.0 | 0.00 | 0.00 | 0.00 | 54 | 1007.5 |
| 20260506140425 | 7 | 359 | 0.0 | 3.2 | 0.00 | 0.00 | 0.00 | 49 | 1007.4 |
| 20260506135922 | 7 | 318 | 0.0 | 1.6 | 0.00 | 0.00 | 0.00 | 62 | 1007.5 |
| 20260506135419 | 7 | 353 | 1.6 | 1.6 | 0.00 | 0.00 | 0.00 | 63 | 1007.5 |
| 20260506134915 | 6 | 321 | 1.6 | 3.2 | 0.00 | 0.00 | 0.00 | 65 | 1007.4 |
| 20260506134411 | 6 | 328 | 1.6 | 1.6 | 0.00 | 0.00 | 0.00 | 68 | 1007.5 |
| 20260506133909 | 6 | 248 | 1.6 | 1.6 | 0.00 | 0.00 | 0.00 | 68 | 1007.4 |
| 20260506133405 | 6 | 323 | 0.0 | 1.6 | 0.00 | 0.00 | 0.00 | 69 | 1007.4 |
| 20260506132902 | 6 | 314 | 3.2 | 3.2 | 0.00 | 0.00 | 0.00 | 69 | 1007.3 |
| 20260506132359 | 5 | 334 | 3.2 | 3.2 | 0.00 | 0.00 | 0.00 | 69 | 1007.2 |
| 20260506131857 | 5 | 300 | 1.6 | 3.2 | 0.00 | 0.00 | 0.00 | 70 | 1007.3 |
| 20260506131353 | 5 | 333 | 1.6 | 4.8 | 0.00 | 0.00 | 0.00 | 71 | 1007.3 |
| 20260506130850 | 5 | 306 | 1.6 | 3.2 | 0.00 | 0.00 | 0.00 | 73 | 1007.2 |
| 20260506130346 | 5 | 347 | 3.2 | 4.8 | 0.00 | 0.00 | 0.00 | 73 | 1007.1 |
| 20260506125845 | 5 | 336 | 3.2 | 3.2 | 0.00 | 0.00 | 0.00 | 72 | 1007.2 |
| 20260506125343 | 5 | 328 | 1.6 | 3.2 | 0.00 | 0.00 | 0.00 | 74 | 1006.8 |
| 20260506124841 | 5 | 341 | 3.2 | 4.8 | 0.00 | 0.00 | 0.00 | 75 | 1006.6 |
| 20260506124337 | 5 | 307 | 0.0 | 3.2 | 0.00 | 0.00 | 0.00 | 75 | 1006.8 |
| 20260506123835 | 5 | 335 | 3.2 | 3.2 | 0.00 | 0.00 | 0.00 | 74 | 1006.6 |
| 20260506123333 | 5 | 335 | 3.2 | 3.2 | 0.00 | 0.00 | 0.00 | 77 | 1006.5 |
| 20260506122830 | 5 | 311 | 1.6 | 3.2 | 0.00 | 0.00 | 0.00 | 77 | 1006.6 |
| 20260506122327 | 4 | 292 | 1.6 | 1.6 | 0.00 | 0.00 | 0.00 | 76 | 1006.6 |
| 20260506121826 | 4 | 278 | 1.6 | 1.6 | 0.00 | 0.00 | 0.00 | 76 | 1006.3 |
| 20260506121322 | 4 | 283 | 0.0 | 0.0 | 0.00 | 0.00 | 0.00 | 76 | 1006.4 |
| 20260506120819 | 4 | 329 | 3.2 | 4.8 | 0.00 | 0.00 | 0.00 | 77 | 1006.3 |
| 20260506120317 | 4 | 318 | 1.6 | 3.2 | 0.00 | 0.00 | 0.00 | 76 | 1006.2 |
| 20260506115814 | 4 | 299 | 1.6 | 3.2 | 0.00 | 0.00 | 0.00 | 77 | 1006.1 |
| 20260506115313 | 4 | 303 | 0.0 | 1.6 | 0.00 | 0.00 | 0.00 | 79 | 1006.1 |
| 20260506114810 | 4 | 299 | 1.6 | 1.6 | 0.00 | 0.00 | 0.00 | 79 | 1006.0 |
| 20260506114308 | 4 | 298 | 0.0 | 0.0 | 0.00 | 0.00 | 0.00 | 80 | 1006.0 |
| 20260506113806 | 4 | 285 | 0.0 | 1.6 | 0.00 | 0.00 | 0.00 | 80 | 1006.0 |
| 20260506113303 | 4 | 306 | 0.0 | 1.6 | 0.00 | 0.00 | 0.00 | 79 | 1006.0 |
| 20260506112759 | 4 | 308 | 1.6 | 1.6 | 0.00 | 0.00 | 0.00 | 80 | 1005.9 |
| 20260506112257 | 4 | 308 | 1.6 | 3.2 | 0.00 | 0.00 | 0.00 | 83 | 1005.8 |
| 20260506111754 | 4 | 297 | 1.6 | 1.6 | 0.00 | 0.00 | 0.00 | 83 | 1005.8 |
| 20260506111252 | 4 | 300 | 0.0 | 1.6 | 0.00 | 0.00 | 0.00 | 82 | 1005.7 |
| 20260506110749 | 4 | 299 | 0.0 | 1.6 | 0.00 | 0.00 | 0.00 | 81 | 1005.8 |
| 20260506110247 | 3 | 304 | 1.6 | 1.6 | 0.00 | 0.00 | 0.00 | 82 | 1005.7 |
| 20260506105743 | 4 | 317 | 1.6 | 3.2 | 0.00 | 0.00 | 0.00 | 82 | 1005.7 |
| 20260506105240 | 4 | 321 | 1.6 | 3.2 | 0.00 | 0.00 | 0.00 | 83 | 1005.7 |
| 20260506104738 | 4 | 310 | 1.6 | 1.6 | 0.00 | 0.00 | 0.00 | 85 | 1005.5 |
| 20260506104235 | 4 | 310 | 0.0 | 1.6 | 0.00 | 0.00 | 0.00 | 86 | 1005.4 |
| 20260506103732 | 4 | 309 | 0.0 | 1.6 | 0.00 | 0.00 | 0.00 | 88 | 1005.5 |
| 20260506103229 | 4 | 307 | 0.0 | 1.6 | 0.00 | 0.00 | 0.00 | 88 | 1005.5 |
| 20260506102727 | 4 | 307 | 0.0 | 0.0 | 0.00 | 0.00 | 0.00 | 88 | 1005.2 |
| 20260506102225 | 4 | 313 | 0.0 | 1.6 | 0.00 | 0.00 | 0.00 | 88 | 1005.5 |
| 20260506101721 | 4 | 317 | 0.0 | 1.6 | 0.00 | 0.00 | 0.00 | 88 | 1005.6 |
| 20260506101218 | 4 | 325 | 0.0 | 1.6 | 0.00 | 0.00 | 0.00 | 88 | 1005.4 |
| 20260506100716 | 4 | 325 | 1.6 | 3.2 | 0.00 | 0.00 | 0.00 | 87 | 1005.1 |
| 20260506100214 | 4 | 320 | 1.6 | 1.6 | 0.00 | 0.00 | 0.00 | 87 | 1005.2 |
| 20260506095712 | 5 | 319 | 0.0 | 3.2 | 0.00 | 0.00 | 0.00 | 87 | 1005.2 |
| 20260506095209 | 5 | 320 | 1.6 | 1.6 | 0.00 | 0.00 | 0.00 | 87 | 1005.2 |
| 20260506094706 | 5 | 318 | 0.0 | 1.6 | 0.00 | 0.00 | 0.00 | 87 | 1005.2 |
| 20260506094204 | 5 | 318 | 1.6 | 1.6 | 0.00 | 0.00 | 0.00 | 87 | 1005.4 |